{"data":{"norad_id":52345,"epoch":"2026-05-25T04:22:45.082272Z","epoch_age_seconds":49398,"freshness":"FRESH","line1":"1 52345U 22045Q   26145.18246623  .00000471  00000+0  47680-4 0  9992","line2":"2 52345  53.2140 215.8975 0001213  89.1240 270.9891 15.08836980227313","mean_motion":15.0883698,"eccentricity":0.0001213,"inclination_deg":53.214,"raan_deg":215.8975,"arg_perigee_deg":89.124,"mean_anomaly_deg":270.9891,"bstar":4.768e-5,"rev_number":22731,"period_min":95.437745700003,"perigee_km":538.91347990044,"apogee_km":540.59175992223,"semimajor_km":6917.8896199113,"source":"CELESTRAK","updated_at":"2026-05-25T13:38:17.115269Z"}}